Regional Weather Roundup
Issued by NWS Wakefield, VA

Home | Current Version | Previous Version | Graphics & Text | Print | Product List | Glossary On
Versions: 1 2 3 4 5 6 7 8 9 10 11 12 13 14 15 16 17 18 19 20 21 22 23 24 25 26 27 28 29 30 31 32 33 34 35 36 37 38 39 40 41 42 43 44 45 46 47 48 49 50
000
ASUS41 KAKQ 060615
RWRAKQ

REGIONAL WEATHER ROUNDUP
NATIONAL WEATHER SERVICE WAKEFIELD VA
100 AM EST TUE DEC 06 2016

Note: "fair" indicates few or no clouds below 12,000 feet with no
significant weather and/or obstructions to visibility. * = Denotes
station may not report precipitation (e.g., rain,snow,etc.),
thunder or fog.

VAZ042-051-052>054-056-060700-
NORTHERN VIRGINIA

CITY           SKY/WX    TMP DP  RH WIND       PRES   REMARKS
WASH NATIONAL  CLOUDY    45  32  60 NE7       30.14S
DULLES         CLOUDY    40  32  73 NE5       30.13S
FORT BELVOIR   CLOUDY    42  32  67 CALM      30.12F
QUANTICO       CLOUDY    46  34  62 NE7       30.13F
FREDERICKSBRG* CLOUDY    41  41 100 CALM      30.10F
STAFFORD*      CLOUDY    42  34  72 NE3       30.15F
WARRENTON      CLOUDY    42  31  67 N5        30.11F
CULPEPER*      CLOUDY    41  35  78 CALM      30.12F
MANASSAS*      PTCLDY    41  36  81 N5        30.12F
LEESBURG*      CLOUDY    41  36  81 MISG      30.12F
WINCHESTER     PTCLDY    34  30  86 CALM      30.10F
FRONT ROYAL*   FAIR      37  32  81 CALM      30.09F
LURAY*         FAIR      41  34  75 N6        30.09S
$$

VAZ048-049-060>072-079>083-060700-
CENTRAL AND SOUTH CENTRAL VIRGINIA

CITY           SKY/WX    TMP DP  RH WIND       PRES   REMARKS
RICHMOND       CLOUDY    44  42  93 CALM      30.09F
CHESTERFIELD*  MOCLDY    43  28  56 CALM      30.10F
PETERSBURG*    CLOUDY    43  42  95 CALM      30.11R
HANOVER        CLOUDY    42  40  92 CALM      30.10F FOG
TAPPAHANNOCK*  CLOUDY    41  41 100 CALM      30.10F
QUINTON*       FAIR      42  41  99 E3        30.09F
CHARLOTTSVILLE CLOUDY    46  37  71 NE7       30.09F
GORDONSVILLE*  FAIR      41  38  89 NE5       30.08F
ORANGE*          N/A     43  36  75 CALM      30.11F
LOUISA*        CLOUDY    46  41  81 NE5       30.07F
BUMPASS*       FAIR      44  38  79 CALM      30.09F
FARMVILLE*     CLOUDY    45  44  98 CALM      30.08S
CREWE*         CLOUDY    43  43 100 CALM      30.09S
FORT PICKETT*  CLOUDY    44  41  88 W6        30.09S
CHASE CITY*    CLOUDY    46  44  95 CALM      30.09S
CLARKSVILLE*   CLOUDY    46  45  93 CALM      30.09R
SOUTH HILL*    CLOUDY    45  44  95 CALM      30.14S
LAWRENCEVILLE* CLOUDY    46  43  90 CALM      30.09S
EMPORIA*       CLOUDY    45  43  93 CALM      30.11S
$$

VAZ088>098-060700-
SOUTHEAST VIRGINIA

CITY           SKY/WX    TMP DP  RH WIND       PRES   REMARKS
NORFOLK        CLOUDY    49  42  77 CALM      30.09F
VIRGINIA BEACH CLOUDY    49  40  71 NE3       30.09S
NORFOLK NAVAL  CLOUDY    49  41  74 NE5       30.11F
WEST POINT*    CLOUDY    42  42  98 CALM      30.12S
SALUDA*        FAIR      45  44  97 CALM      30.11R
NEWPORT NEWS   CLOUDY    44  43  96 CALM      30.10S
LANGLEY AFB    CLOUDY    46  44  95 CALM      30.09F
FORT EUSTIS    CLOUDY    45  42  89 CALM      30.08S
WILLIAMSBURG*  CLOUDY    46  45  93 CALM      30.11S
HR EXEC AP*    CLOUDY    45  41  87 CALM      30.08F
FRANKLIN*      CLOUDY    44  42  95 CALM      30.09F
US460-WAKEFLD  CLOUDY    44  43  96 CALM      30.10F
$$

VAZ020-022-025-037-045-060700-
WEST CENTRAL AND SOUTHWEST VIRGINIA

CITY           SKY/WX    TMP DP  RH WIND       PRES   REMARKS
STAUNTON*      PTCLDY    39  34  81 CALM      30.09S
WAYNESBORO*    FAIR      44  40  85 CALM      30.08R
HOT SPRINGS VA CLOUDY    37  37 100 SE9       29.99F
LYNCHBURG      CLOUDY    46  42  86 CALM      30.09F
DANVILLE       LGT RAIN  46  46 100 CALM      30.09R
SOUTH BOSTON*  CLOUDY    46  45  96 CALM      30.10R
MARTINSVILLE   LGT RAIN  46  45  97 CALM      30.08F
ROANOKE        CLOUDY    47  42  83 E6        30.08S
BLACKSBURG     DRIZZLE   44  42  93 E3        30.06F
DUBLIN*        LGT RAIN  45  43  92 SE5       30.04F
MARION*        LGT RAIN  44  40  87 E10G23    30.00F
HILLSVILLE*    RAIN      41  41  99 CALM      30.00F
RICHLANDS*     CLOUDY    46  24  42 SE13G23   29.90S
WISE*          CLOUDY    48  43  81 SE10G16   29.85F
ABINGDON*      CLOUDY    49  45  87 E16       29.90F
$$

MDZ021>025-VAZ099-100-060700-
SOUTHERN MARYLAND AND THE DELMARVA PENINSULA

CITY           SKY/WX    TMP DP  RH WIND       PRES   REMARKS
PATUXENT RIVER PTCLDY    46  35  65 NE14      30.11F
BAY BRIDGE APT CLOUDY    43  32  65 NE5       30.14S
LEONARDTOWN    CLOUDY    43  34  70 CALM      30.11F
DOVER          CLOUDY    41  36  81 NW6       30.12R
GEORGETOWN     CLOUDY    42  35  76 N5        30.13R
EASTON         PTCLDY    40  35  80 CALM      30.17S
CAMBRIDGE      CLOUDY    41  36  81 N5        30.11F
SALISBURY      CLOUDY    42  36  79 N7        30.11S
OCEAN CITY     CLOUDY    41  38  89 CALM      30.12R
WALLOPS ISLAND CLOUDY    42  39  89 N5        30.11F
ACCOMACK*      PTCLDY    44  39  83 NE6       30.09S
$$

NCZ012>017-030>032-060700-
NORTH CENTRAL AND EASTERN NORTH CAROLINA

CITY           SKY/WX    TMP DP  RH WIND       PRES   REMARKS
ROANOKE RAPIDS MOCLDY    45  45 100 CALM      30.08S
RALEIGH        LGT RAIN  48  46  93 NE3       30.09R
ELIZABETH CITY CLOUDY    48  43  82 N10       30.06F
AHOSKIE*         N/A     45  43  92 CALM      30.08F
EDENTON*       CLOUDY    48  43  83 CALM      30.07F
CURRITUCK*     CLOUDY    48  46  93 CALM      30.09F
KILL DEVIL HLS CLOUDY    52  47  84 NE5       30.06F
MANTEO         CLOUDY    52  46  79 NE9       30.07F
CAPE HATTERAS  CLOUDY    53  48  83 NE10G17   30.02F
TARBORO*       NOT AVBL
GOLDSBORO      LGT RAIN  49  48  95 CALM      30.06R
WASHINGTON     CLOUDY    47  42  82 E3        30.06F
GREENVILLE     CLOUDY    48  43  81 NE5       30.08S
NEW BERN       LGT RAIN  49  43  80 NE6       30.06F
WILMINGTON     HVY RAIN  48  47  96 NE9       30.01F FOG
$$

VAZ048-060700-
ELSEWHERE

CITY           SKY/WX    TMP DP  RH WIND       PRES   REMARKS
HARRISBURG PA  CLOUDY    33  30  88 CALM      30.12S
BALTIMORE      CLOUDY    39  33  79 CALM      30.14R
ANNAPOLIS      CLOUDY    46  33  60 N3        30.13S
ANDREWS AFB    MOCLDY    40  31  72 N6        30.11F
PHILADELPHIA   MOCLDY    40  30  67 N8        30.13R
HENDERSON NC   DRIZZLE   44  42  92 CALM      30.09R
GREENSBORO     LGT RAIN  47  45  93 E12       30.04F
ROCKY MOUNT    LGT RAIN  48  45  89 CALM      30.09R
$$

VAZ100-060700-
MARINE

STATION/POSITION TIME  TEMP    WIND        PRES    WAVE   SWELL
                       AIR SEA DIR/SP/G            HT/PER HT/PER
                 (UTC) (F)     (DEG/KT/KT) (MB)    (FT/S) (FT/S)
BRANDYWINE LGT   0530   45      10/ 15/ 18   N/A
CAPE MAY NJ      0530   44 48   10/  3/  6 1019.3R
LEWES DE         0530   47 49   20/ 15/ 17 1019.8R
OCEAN-CITY-INLET 0530   46 50  360/  8/  9 1019.9R
WACHAPREAGUE VA  0530   45 49  360/  5/  7 1018.7F
THOMAS POINT MD  0600   45 49   10/  9/ 11   N/A
GOOSES REEF MD   0600   47 50   70/ 14/ 16 1020.4    1/ 2
COVE POINT MD    0530   46      40/ 16/ 19 1020.7S
SOLOMONS ISLAND  0530   46 51   20/  7/ 10   N/A
BISHOPS HEAD MD  0530   45 46   10/  7/ 12 1020.0R
PINEY POINT MD   0524           30/  4/  4   N/A
POTOMAC MD       0600   48 51   40/ 14/ 17 1018.7
CAMBRIDGE MD     0530   45 47  360/  5/  6 1019.7R
LEWISETTA VA     0530   47 48   30/  5/  7 1019.2F
RAPPAHANNOCK LGT 0524           40/  9/ 12 1019.2
STINGRAY PT      0550   49      80/  4/  6 1019.8R
YORK RVR RNG VA  0530   48     340/  2/  2 1019.0R
YORKTOWN VA      0530   47 52  190/  1/  2 1019.1R
JAMESTOWN VA     0600   46 52   60/  2/  2   N/A
DOMINION TERM VA 0530   49      80/  6/ 10 1019.3F
KIPTOPEKE VA     0530      52   CALM  /  2   N/A
CHES BAY BRIDGE  0530   50 54   80/  4/  5 1019.3R
CAPE HENRY VA    0530   51      70/ 10/ 12   N/A
WILLOUBY STN VA  0530   50      80/  8/  8 1020.1F
S CRANEY ISL VA  0530   50      80/  4/  6 1019.0F
CAPE HENRY BUOY  0542      56                N/A     3/ 5
1ST LANDING BUOY 0600   50 54              1019.2    2/ 3
CAPE CHARLES BUO 0556      55                N/A     3/ 5
OFFSHORE WE BUOY 0551      56                N/A     4/ 5
64NM E OF VA BCH 0550   54 60   50/ 14/ 16 1018.0F   5/ 9   3/ 9
DUCK PIER NC     0530   53 54   40/ 13/ 15 1018.1F
44100 DUCK FRF   0535      56                N/A     4/ 6
OREGON INLET NC  0530   53 56   30/ 10/ 14 1017.7F
HATTERAS NC      0530   53 59   20/ 11/ 15 1016.4F
DIAMOND SHLS NC  0550   59 76   30/ 16/ 19 1015.9F   5/ 8   3/ 8
CAPE LOOKOUT NC  0600   51      20/ 12/ 15 1016.7F
$$



USA.gov is the U.S. government's official web portal to all federal, state and local government web resources and services.